Akron, OH

2:20 PM EDT on March 28, 2017 (GMT -0400)
Akron Fulton International

Weather History for KAKR - November, 2012

Change the Weather History Date:

Sunday, November 4, 2012

  Actual Average (KCAK) Record (KCAK)
Temperature  
Mean Temperature 36 °F -  
Max Temperature 39 °F 52 °F 76 °F (2003)
Min Temperature 33 °F 37 °F 13 °F (1991)
Degree Days  
Heating Degree Days 29    
Moisture  
Dew Point 30 °F    
Average Humidity 76    
Maximum Humidity 93    
Minimum Humidity 61    
Precipitation  
Precipitation 0.01 in - - ()
Sea Level Pressure  
Sea Level Pressure 30.13 in    
Wind  
Wind Speed 5 mph (NNW)    
Max Wind Speed 8 mph    
Max Gust Speed -    
Visibility 10 miles    
Events Rain    
Averages and records for this station are not official NWS values.
T = Trace of Precipitation, MM = Missing Value Source: NWS Daily Summary

Daily Weather History Graph

Daily Weather History Graph

Search for Another Location

Airport or City:

Trip Planner

Search our weather history database for the weather conditions in past years. The results will help you decide how hot, cold, wet, or windy it might be!

Date:

Astronomy

Nov. 04, 2012 Rise Set
Actual Time 7:00 AM EST 5:17 PM EST
Civil Twilight 6:32 AM EST 5:46 PM EST
Nautical Twilight 5:59 AM EST 6:18 PM EST
Astronomical Twilight 5:27 AM EST 6:51 PM EST
Moon 9:53 PM EST (11/4) 11:44 AM EST (11/4)
Length of Visible Light 11h 14m
Length of Day
10h 16m
Waning Gibbous, 72% of the Moon is Illuminated
Nov 4
Waning Gibbous
Nov 6
Last Quarter
Nov 13
New
Nov 20
First Quarter
Nov 28
Full

Hourly Weather History & Observations

Time (EST) Temp. Windchill Dew Point Humidity Pressure Visibility Wind Dir Wind Speed Gust Speed Precip Events Conditions
12:54 AM 37.9 °F 34.4 °F 30.9 °F 76% 30.14 in 10.0 mi North 4.6 mph - N/A   Overcast
1:54 AM 37.0 °F 34.5 °F 30.9 °F 79% 30.13 in 10.0 mi North 3.5 mph - N/A   Overcast
1:54 AM 37.0 °F 32.4 °F 32.0 °F 82% 30.14 in 10.0 mi NNW 5.8 mph - 0.00 in Rain Light Rain
2:52 AM 37.4 °F 32.1 °F 32.0 °F 81% 30.12 in 10.0 mi North 6.9 mph - 0.00 in   Overcast
2:54 AM 36.0 °F 29.6 °F 32.0 °F 86% 30.14 in 9.0 mi North 8.1 mph - 0.00 in   Overcast
3:54 AM 35.1 °F 31.0 °F 32.0 °F 89% 30.14 in 10.0 mi North 4.6 mph - 0.01 in   Overcast
4:22 AM 35.6 °F 30.7 °F 32.0 °F 87% 30.11 in 10.0 mi North 5.8 mph - N/A   Overcast
4:54 AM 35.1 °F 31.0 °F 32.0 °F 89% 30.13 in 10.0 mi North 4.6 mph - N/A   Overcast
5:04 AM 35.6 °F 32.8 °F 32.0 °F 87% 30.11 in 10.0 mi North 3.5 mph - N/A   Overcast
5:54 AM 34.0 °F - 32.0 °F 92% 30.13 in 10.0 mi Calm Calm - N/A   Mostly Cloudy
6:36 AM 33.8 °F - 32.0 °F 93% 30.12 in 10.0 mi Calm Calm - N/A   Overcast
6:54 AM 33.8 °F - 32.0 °F 93% 30.12 in 10.0 mi Calm Calm - N/A   Overcast
7:54 AM 36.0 °F 32.1 °F 30.9 °F 82% 30.16 in 10.0 mi Variable 4.6 mph - N/A   Overcast
8:54 AM 36.0 °F 32.1 °F 30.9 °F 82% 30.16 in 10.0 mi North 4.6 mph - N/A   Overcast
9:54 AM 37.0 °F 33.3 °F 30.9 °F 79% 30.15 in 10.0 mi North 4.6 mph - N/A   Overcast
10:47 AM 37.4 °F 32.8 °F 28.4 °F 70% 30.13 in 10.0 mi NNW 5.8 mph - N/A   Overcast
10:54 AM 37.9 °F 32.7 °F 28.9 °F 70% 30.16 in 10.0 mi NNW 6.9 mph - N/A   Overcast
11:54 AM 37.9 °F 32.1 °F 28.0 °F 68% 30.15 in 10.0 mi NNW 8.1 mph - N/A   Overcast
12:42 PM 39.2 °F 33.6 °F 28.4 °F 65% 30.11 in 10.0 mi North 8.1 mph - N/A   Overcast
12:54 PM 37.9 °F 32.1 °F 28.0 °F 68% 30.13 in 10.0 mi North 8.1 mph - N/A   Overcast
1:54 PM 39.0 °F 35.7 °F 28.9 °F 67% 30.13 in 10.0 mi North 4.6 mph - N/A   Overcast
2:16 PM 39.2 °F 33.6 °F 26.6 °F 61% 30.12 in 10.0 mi NNW 8.1 mph - N/A   Overcast
2:54 PM 39.0 °F 34.8 °F 28.0 °F 65% 30.14 in 10.0 mi North 5.8 mph - N/A   Overcast
3:54 PM 39.0 °F 34.0 °F 27.0 °F 62% 30.14 in 10.0 mi NNW 6.9 mph - N/A   Overcast
4:20 PM 37.4 °F 32.8 °F 28.4 °F 70% 30.11 in 10.0 mi NW 5.8 mph - N/A   Overcast
4:54 PM 37.9 °F 32.1 °F 28.0 °F 68% 30.14 in 10.0 mi NNW 8.1 mph - N/A   Overcast
5:54 PM 37.9 °F 32.7 °F 28.0 °F 68% 30.14 in 10.0 mi NNW 6.9 mph - N/A   Overcast
6:28 PM 37.4 °F 33.8 °F 28.4 °F 70% 30.12 in 10.0 mi WNW 4.6 mph - N/A   Overcast
6:54 PM 37.0 °F 31.0 °F 28.9 °F 73% 30.14 in 10.0 mi NW 8.1 mph - N/A   Overcast
7:37 PM 37.4 °F 32.8 °F 28.4 °F 70% 30.12 in 10.0 mi NW 5.8 mph - N/A   Overcast
7:54 PM 36.0 °F 29.6 °F 30.0 °F 79% 30.14 in 10.0 mi WNW 8.1 mph - N/A   Overcast
8:54 PM 37.0 °F 33.3 °F 28.9 °F 73% 30.14 in 10.0 mi WNW 4.6 mph - N/A   Overcast
9:31 PM 37.4 °F 32.1 °F 28.4 °F 70% 30.12 in 10.0 mi NW 6.9 mph - N/A   Overcast
9:54 PM 37.0 °F 31.6 °F 28.0 °F 70% 30.14 in 10.0 mi NW 6.9 mph - N/A   Overcast
10:16 PM 37.4 °F 33.8 °F 28.4 °F 70% 30.12 in 10.0 mi NW 4.6 mph - N/A   Overcast
10:54 PM 37.0 °F 32.4 °F 28.0 °F 70% 30.13 in 10.0 mi WNW 5.8 mph - N/A   Overcast